Tracking 30970 objects as of 3-Jul-2025
HD Live streaming from Space Station
objects crossing your sky now

THORAD DELTA 1 DEB

Track THORAD DELTA 1 DEB now!
10-day predictions


NORAD ID: 8395
Int'l Code: 1974-089BX
Perigee: 1,329.2 km
Apogee: 1,437.4 km
Inclination: 100.9 °
Period: 113.3 minutes
Semi major axis: 7754 km
RCS: 0.0263 m2 (small)
Launch date: November 15, 1974
Source: United States (US)
Launch site: AIR FORCE WESTERN TEST RANGE (AFWTR)

Note: This is SATELLITE DEBRIS
Your satellite tracking list
AEROCUBE 6A
Track 1 satellite(s)




NASA's NSSDC Master Catalog

Two Line Element Set (TLE):
1 08395U 74089BX  25179.75170661  .00001549  00000-0  77809-2 0  9992
2 08395 100.8591 164.6748 0069772 169.9356  10.6649 12.71425522518907
Source of the keplerian elements: AFSPC